Flag for Canada Weather past 2 weeks in Greater Sudbury, Ontario, Canada

Now
36 °F

Light rain. Low clouds.


Feels Like: 29 °F
Forecast: 37 / 45 °F
Wind: 9 mph from Southeast

Location: Sudbury

Current Time: Oct 20, 2014 at 4:54:00 AM

Latest Report: Oct 20, 2014 at 4:00 AM


Visibility: 8 mi

Pressure: 29.86 "Hg

Humidity: 100%

Dew point: 36 °F

Location of Greater SudburyLocation

Historic Weather in Greater Sudbury — Graph

°F

Greater Sudbury temperature yesterday

Maximum temperature yesterday: 37 °F (at 2:00 PM)
Minimum temperature yesterday: 30 °F (at 3:00 AM)
Average temperature yesterday: 33 °F

Past Weeks' High & Low Weather Summary

 TemperatureHumidityPressure
High61 °F (Oct 14, 9:00 AM)100% (Oct 5, 3:00 AM)30.22 "Hg (Oct 5, 3:00 AM)
Low30 °F (Oct 19, 3:00 AM)53% (Oct 9, 2:00 PM)29.35 "Hg (Oct 17, 3:00 PM)
Average45 °F88%29.83 "Hg
* Reported Oct 5 3:00 AM — Oct 20 3:00 AM, Greater Sudbury, Weather by CustomWeather, © 2014

Note: Actual official high and low records may vary slightly from our data, if they occured in-between our weather recording intervals... More about our weather records

Advertising

Greater Sudbury weather history for previous 24 hours

 ConditionsComfort  
Time TempWeatherWind HumidityBarometerVisibility
3:00 AM
Oct 20
34 °FOvercast.8 mph100%29.88 "Hg15 mi
2:00 AM34 °FLight rain. Overcast.7 mph100%29.90 "Hg15 mi
1:00 AM36 °FLight rain. Mostly cloudy.6 mph93%29.93 "Hg15 mi
11:00 PM
Oct 19
36 °FOvercast.6 mph81%29.96 "Hg15 mi
10:00 PM36 °FPassing clouds.7 mph81%29.96 "Hg15 mi
9:00 PM36 °FOvercast.7 mph75%29.98 "Hg15 mi
8:00 PM36 °FPassing clouds.7 mph75%29.99 "Hg15 mi
7:00 PM36 °FPartly sunny.7 mph75%30.00 "Hg15 mi
6:00 PM37 °FPartly sunny.7 mph65%30.01 "Hg20 mi
5:00 PM37 °FPartly sunny.8 mph60%30.02 "Hg20 mi
4:00 PM37 °FPartly sunny.9 mph60%30.03 "Hg20 mi
3:00 PM37 °FPartly sunny.6 mph60%30.06 "Hg20 mi
2:00 PM37 °FPartly sunny.9 mph60%30.07 "Hg20 mi
1:00 PM34 °FPartly sunny.5 mph70%30.10 "Hg20 mi
12:00 PM34 °FOvercast.8 mph70%30.11 "Hg20 mi
11:00 AM30 °FOvercast.2 mph75%30.13 "Hg20 mi
10:00 AM30 °FOvercast.5 mph75%30.13 "Hg20 mi
9:00 AM30 °FOvercast.7 mph75%30.13 "Hg20 mi
8:00 AM30 °FOvercast.5 mph75%30.13 "Hg20 mi
7:00 AM30 °FOvercast.8 mph69%30.12 "Hg15 mi
6:00 AM30 °FOvercast.6 mph75%30.11 "Hg15 mi
5:00 AM30 °FOvercast.9 mph69%30.11 "Hg15 mi
4:00 AM30 °FOvercast.10 mph69%30.10 "Hg15 mi
Weather by CustomWeather, © 2014

See weather overviewHow to use our weather pages